DELTA 1 DEB

Satellite information

Favourite Embed

Satellite Type and Status

DEBRISIN ORBIT

Key statistics

Satellite DELTA 1 DEB at a glance.

Uptime

18040

Days in orbit

Revolutions

≈ 12.4

Per day

Orbit

SSO

Sun Synchronous Orbit

Inclination

102.2

Latest

Satellite identification and parameters

Extended collection of information and parameters for DELTA 1 DEB.

Object identification

Identified? True

Debris? True

Object name: DELTA 1 DEB

International designator: 1976-077AH

Object number (NORAD): 10712

Object ID (CCSDS): 10712

Country: UNITED STATES OF AMERICA (US)

Current information (Y/N): Y

RCS size: SMALL

Orbital parameters

Period: 116.112 minutes

Inclination: 102.2215 deg

SMA: 7883.989 km

Apoapsis: 1558.188 km

Periapsis: 1453.519 km

RAAN: 120.6837 deg

Eccentricy: 0.00663809

Argument of periapsis: 75.7498 deg

Mean anomaly: 32.3615 deg

Mean motion: 12.40177248 rev/day

Mean motion (dot): 0.00000951 rev/day2

B* drag term: 0.0073924729 1/REarth

Two-line elements (TLE)

Creation date: Dec. 19, 2025, 2:08 a.m.

Reference frame: TEME

Reference center: EARTH

Epoch: Dec. 18, 2025, 6:02 p.m. UTC

TLE line 0: 0 DELTA 1 DEB

TLE line 1: 1 10712U 76077AH 25352.75196931 .00000951 00000-0 73925-2 0 9999

TLE line 2: 2 10712 102.2215 120.6837 0066381 75.7498 32.3615 12.40177248225282

Live tracking on map

Real-time ground track for satellite DELTA 1 DEB.

In-orbit conjunctions

A list of the most updated potential collisions computed for object DELTA 1 DEB.

Target Orbit TCA Probability of collision Miss distance Type
SL-14 R/B LEO 2025-12-19 11:22:35 0.0003520036 385.0 (m) ROCKET BODY
SL-8 R/B LEO 2025-12-14 07:51:25 0.008409493 29.0 (m) ROCKET BODY
COSMOS 1526 LEO 2025-04-12 03:54:30 0.0001407821 162.0 (m) PAYLOAD
DELTA 1 DEB SSO 2025-03-04 05:02:08 0.000143686 196.0 (m) DEBRIS
COSMOS 1088 LEO 2024-07-02 05:16:21 0.0001632309 709.0 (m) PAYLOAD

Associated space launch

Meteorological satellite using radiometric imaging

DELTA 1 DEB was lifted into orbit during the mission ‘Delta 2310 | NOAA 5’, on board a Delta 2310 space rocket.

The launch took place on July 29, 1976, 5:07 p.m. from Space Launch Complex 2W.

For more information about the launch, click the button.

Launch to space Delta 2310 | NOAA 5
Delta 2310 | NOAA 5

Agency: N/A

Status: Launch Successful

Launch date: July 29, 1976, 5:07 p.m. UTC

Rocket: Delta 2310

Launch pad: Space Launch Complex 2W

Location: Vandenberg SFB, CA, USA

...

Latest news about this satellite

There are no fresh news available about this satellite. Check back as we update our databases every day.


Newsletter sign-up

Weekly statistics, charts and insights to help you stay on top of the space industry.